User: anonymous   Login
Location: Unspecified
(0.0000°N, 0.0000°E)
Time: 21:12:53
(UTC+00:00)
Language:

LilacSat-2 - Orbit

View from above orbital plane
View from above orbital plane
View from above satellite
View from above satellite

Ground track
Ground track

The orbit data is extracted from the following two-line orbital elements,

1 40908U 15049K   22268.55701955  .00002828  00000-0  14913-3 0  9998
2 40908  97.5213 268.2024 0016236  35.9557  80.4276 15.16287537387657
Epoch (UTC): 25 September 2022 13:22:06
Eccentricity: 0.0016236
inclination: 97.5213°
perigee height: 506 km
apogee height: 528 km
right ascension of ascending node: 268.2024°
argument of perigee: 35.9557°
revolutions per day: 15.16287537
mean anomaly at epoch: 80.4276°
orbit number at epoch: 38765

The dashed part of the orbit path shows where the satellite is in the earth's shadow,  

DLR